User: anonymous   Login
Location: McKinley Crossing
(64.8808°N, 149.6453°W)
Time: 17:24:23
(UTC+00:00)
Language:

NOAA 19 - Orbit

View from above orbital plane
View from above orbital plane
View from above satellite
View from above satellite

Ground track
Ground track

The orbit data is extracted from the following two-line orbital elements,

1 33591U 09005A   21102.10561770  .00000038  00000-0  46205-4 0  9990
2 33591  99.1890 121.1504 0013233 321.7802  38.2429 14.12459841627550
Epoch (UTC): 12 April 2021 02:32:05
Eccentricity: 0.0013233
inclination: 99.1890°
perigee height: 841 km
apogee height: 860 km
right ascension of ascending node: 121.1504°
argument of perigee: 321.7802°
revolutions per day: 14.12459841
mean anomaly at epoch: 38.2429°
orbit number at epoch: 62755

The dashed part of the orbit path shows where the satellite is in the earth's shadow,  

DLR